| time (UTC) | temp F | wind direction | speed knots | gust knots | rain 1hr in | rain 24hr in | rain mn in | humidity % | barometer mb |
| 20260504050726 | 49 | 244 | 3.5 | 9.6 | 0.00 | 0.00 | 0.00 | 52 | |
| 20260504050226 | 49 | 237 | 3.5 | 8.7 | 0.00 | 0.00 | 0.00 | 52 | |
| 20260504045725 | 49 | 239 | 1.7 | 4.3 | 0.00 | 0.00 | 0.00 | 52 | |
| 20260504045225 | 49 | 213 | 1.7 | 5.2 | 0.00 | 0.00 | 0.00 | 52 | |
| 20260504044726 | 50 | 246 | 0.9 | 5.2 | 0.00 | 0.00 | 0.00 | 51 | |
| 20260504044226 | 50 | 239 | 0.9 | 5.2 | 0.00 | 0.00 | 0.00 | 51 | |
| 20260504043225 | 50 | 211 | 0.9 | 6.1 | 0.00 | 0.00 | 0.00 | 51 | |
| 20260504042725 | 50 | 0 | 0.0 | 4.3 | 0.00 | 0.00 | 0.00 | 50 | |
| 20260504042226 | 50 | 222 | 0.9 | 4.3 | 0.00 | 0.00 | 0.00 | 50 | |
| 20260504041726 | 50 | 0 | 0.0 | 7.0 | 0.00 | 0.00 | 0.00 | 49 | |
| 20260504041226 | 50 | 0 | 0.0 | 7.0 | 0.00 | 0.00 | 0.00 | 49 | |
| 20260504040726 | 51 | 251 | 0.9 | 4.3 | 0.00 | 0.00 | 0.00 | 48 | |
| 20260504040225 | 51 | 0 | 0.0 | 3.5 | 0.00 | 0.00 | 0.00 | 48 | |
| 20260504035726 | 51 | 228 | 0.9 | 3.5 | 0.00 | 0.00 | 0.00 | 48 | |
| 20260504035226 | 51 | 0 | 0.0 | 2.6 | 0.00 | 0.00 | 0.00 | 48 | |
| 20260504034726 | 51 | 0 | 0.0 | 1.7 | 0.00 | 0.00 | 0.00 | 49 | |
| 20260504034225 | 51 | 0 | 0.0 | 0.9 | 0.00 | 0.00 | 0.00 | 48 | |
| 20260504033726 | 51 | 0 | 0.0 | 2.6 | 0.00 | 0.00 | 0.00 | 48 | |
| 20260504033226 | 51 | 0 | 0.0 | 5.2 | 0.00 | 0.00 | 0.00 | 48 | |
| 20260504032726 | 51 | 256 | 0.9 | 5.2 | 0.00 | 0.00 | 0.00 | 48 | |
| 20260504032226 | 51 | 0 | 0.0 | 3.5 | 0.00 | 0.00 | 0.00 | 48 | |
| 20260504031725 | 52 | 0 | 0.0 | 4.3 | 0.00 | 0.00 | 0.00 | 48 | |
| 20260504031225 | 52 | 0 | 0.0 | 4.3 | 0.00 | 0.00 | 0.00 | 48 | |
| 20260504030725 | 52 | 0 | 0.0 | 4.3 | 0.00 | 0.00 | 0.00 | 48 | |
| 20260504030226 | 52 | 276 | 0.9 | 4.3 | 0.00 | 0.00 | 0.00 | 48 | |
| 20260504025726 | 52 | 276 | 1.7 | 4.3 | 0.00 | 0.00 | 0.00 | 49 | |
| 20260504025225 | 52 | 286 | 0.9 | 4.3 | 0.00 | 0.00 | 0.00 | 49 | |
| 20260504024726 | 52 | 284 | 1.7 | 4.3 | 0.00 | 0.00 | 0.00 | 49 | |
| 20260504024225 | 52 | 288 | 1.7 | 5.2 | 0.00 | 0.00 | 0.00 | 49 | |
| 20260504023226 | 52 | 289 | 1.7 | 8.7 | 0.00 | 0.00 | 0.00 | 48 | |
| 20260504022726 | 52 | 298 | 2.6 | 11.3 | 0.00 | 0.00 | 0.00 | 48 | |
| 20260504022225 | 53 | 299 | 5.2 | 11.3 | 0.00 | 0.00 | 0.00 | 47 | |
| 20260504021726 | 53 | 292 | 4.3 | 12.2 | 0.00 | 0.00 | 0.00 | 47 | |
| 20260504021225 | 52 | 292 | 7.0 | 13.9 | 0.00 | 0.00 | 0.00 | 46 | |
| 20260504020726 | 52 | 302 | 4.3 | 13.9 | 0.00 | 0.00 | 0.00 | 46 | |
| 20260504020226 | 52 | 282 | 6.1 | 13.0 | 0.00 | 0.00 | 0.00 | 46 | |
| 20260504015725 | 52 | 293 | 5.2 | 9.6 | 0.00 | 0.00 | 0.00 | 46 | |
| 20260504015225 | 52 | 302 | 3.5 | 7.0 | 0.00 | 0.00 | 0.00 | 47 | |
| 20260504014725 | 52 | 293 | 1.7 | 7.0 | 0.00 | 0.00 | 0.00 | 47 | |
| 20260504014226 | 52 | 279 | 3.5 | 7.0 | 0.00 | 0.00 | 0.00 | 47 | |
| 20260504013726 | 52 | 285 | 3.5 | 9.6 | 0.00 | 0.00 | 0.00 | 47 | |
| 20260504013226 | 52 | 286 | 5.2 | 9.6 | 0.00 | 0.00 | 0.00 | 47 | |
| 20260504012725 | 52 | 279 | 3.5 | 9.6 | 0.00 | 0.00 | 0.00 | 48 | |
| 20260504012225 | 52 | 296 | 4.3 | 18.2 | 0.00 | 0.00 | 0.00 | 48 | |
| 20260504011725 | 52 | 278 | 7.0 | 18.2 | 0.00 | 0.00 | 0.00 | 48 | |
| 20260504011226 | 52 | 290 | 8.7 | 14.8 | 0.00 | 0.00 | 0.00 | 48 | |
| 20260504010726 | 52 | 302 | 5.2 | 13.9 | 0.00 | 0.00 | 0.00 | 48 | |
| 20260504010226 | 52 | 295 | 6.1 | 15.6 | 0.00 | 0.00 | 0.00 | 47 | |
| 20260504005725 | 53 | 316 | 8.7 | 15.6 | 0.00 | 0.00 | 0.00 | 46 | |
| 20260504005225 | 53 | 316 | 4.3 | 16.5 | 0.00 | 0.00 | 0.00 | 44 | |
| 20260504004726 | 53 | 282 | 9.6 | 16.5 | 0.00 | 0.00 | 0.00 | 44 | |
| 20260504004226 | 53 | 295 | 5.2 | 15.6 | 0.00 | 0.00 | 0.00 | 44 | |
| 20260504003725 | 53 | 291 | 7.8 | 15.6 | 0.00 | 0.00 | 0.00 | 44 | |
| 20260504003225 | 52 | 274 | 7.0 | 15.6 | 0.00 | 0.00 | 0.00 | 45 | |
| 20260504002725 | 52 | 283 | 0.9 | 6.1 | 0.00 | 0.00 | 0.00 | 47 | |
| 20260504002225 | 52 | 0 | 0.0 | 4.3 | 0.00 | 0.00 | 0.00 | 47 | |
| 20260504001726 | 52 | 229 | 1.7 | 5.2 | 0.00 | 0.00 | 0.00 | 47 | |
| 20260504001225 | 52 | 232 | 0.9 | 5.2 | 0.00 | 0.00 | 0.00 | 47 | |
| 20260504000725 | 52 | 0 | 0.0 | 5.2 | 0.00 | 0.00 | 0.00 | 46 | |
| 20260503235725 | 53 | 305 | 0.9 | 8.7 | 0.00 | 0.00 | 0.00 | 46 | |
| 20260503235225 | 53 | 283 | 4.3 | 17.4 | 0.00 | 0.00 | 0.00 | 46 | |
| 20260503234726 | 53 | 276 | 7.8 | 17.4 | 0.00 | 0.00 | 0.00 | 46 | |
| 20260503234225 | 53 | 301 | 4.3 | 14.8 | 0.00 | 0.00 | 0.00 | 45 | |
| 20260503233725 | 53 | 289 | 7.0 | 14.8 | 0.00 | 0.00 | 0.00 | 45 | |
| 20260503233225 | 53 | 318 | 3.5 | 17.4 | 0.00 | 0.00 | 0.00 | 46 | |
| 20260503232725 | 53 | 331 | 11.3 | 20.9 | 0.00 | 0.00 | 0.00 | 46 | |
| 20260503232225 | 53 | 311 | 8.7 | 20.9 | 0.00 | 0.00 | 0.00 | 45 | |
| 20260503231226 | 53 | 299 | 9.6 | 20.9 | 0.00 | 0.00 | 0.00 | 45 | |
| 20260503230725 | 53 | 259 | 11.3 | 19.1 | 0.00 | 0.00 | 0.00 | 44 | |
| 20260503225725 | 53 | 276 | 2.6 | 11.3 | 0.00 | 0.00 | 0.00 | 47 | |
| 20260503224726 | 53 | 259 | 1.7 | 7.8 | 0.00 | 0.00 | 0.00 | 47 | |
| 20260503224225 | 54 | 283 | 3.5 | 13.0 | 0.00 | 0.00 | 0.00 | 46 | |
| 20260503223725 | 54 | 288 | 6.1 | 13.0 | 0.00 | 0.00 | 0.00 | 45 | |
| 20260503223225 | 54 | 277 | 4.3 | 8.7 | 0.00 | 0.00 | 0.00 | 46 | |
| 20260503222725 | 54 | 271 | 3.5 | 10.4 | 0.00 | 0.00 | 0.00 | 45 | |
| 20260503222225 | 54 | 280 | 4.3 | 10.4 | 0.00 | 0.00 | 0.00 | 45 | |
| 20260503221725 | 53 | 292 | 4.3 | 9.6 | 0.00 | 0.00 | 0.00 | 45 | |
| 20260503221225 | 53 | 290 | 5.2 | 8.7 | 0.00 | 0.00 | 0.00 | 45 | |
| 20260503220726 | 53 | 284 | 3.5 | 10.4 | 0.00 | 0.00 | 0.00 | 46 | |
| 20260503215725 | 53 | 294 | 2.6 | 7.8 | 0.00 | 0.00 | 0.00 | 47 | |
| 20260503214725 | 53 | 291 | 3.5 | 8.7 | 0.00 | 0.00 | 0.00 | 45 | |
| 20260503214225 | 53 | 268 | 3.5 | 7.0 | 0.00 | 0.00 | 0.00 | 47 | |
| 20260503213725 | 53 | 293 | 2.6 | 7.8 | 0.00 | 0.00 | 0.00 | 47 | |
| 20260503212725 | 53 | 276 | 3.5 | 9.6 | 0.00 | 0.00 | 0.00 | 46 | |
| 20260503212225 | 53 | 286 | 2.6 | 14.8 | 0.00 | 0.00 | 0.00 | 48 | |
| 20260503211725 | 53 | 288 | 5.2 | 14.8 | 0.00 | 0.00 | 0.00 | 46 | |
| 20260503211225 | 53 | 289 | 3.5 | 9.6 | 0.00 | 0.00 | 0.00 | 47 | |
| 20260503210725 | 53 | 313 | 2.6 | 8.7 | 0.00 | 0.00 | 0.00 | 48 | |
| 20260503210225 | 52 | 323 | 2.6 | 10.4 | 0.00 | 0.00 | 0.00 | 47 | |
| 20260503205725 | 53 | 305 | 2.6 | 10.4 | 0.00 | 0.00 | 0.00 | 47 | |
| 20260503205225 | 53 | 317 | 4.3 | 13.9 | 0.00 | 0.00 | 0.00 | 47 | |
| 20260503204725 | 54 | 287 | 7.8 | 13.9 | 0.00 | 0.00 | 0.00 | 45 | |
| 20260503204226 | 53 | 308 | 4.3 | 10.4 | 0.00 | 0.00 | 0.00 | 48 | |
| 20260503203725 | 53 | 296 | 5.2 | 10.4 | 0.00 | 0.00 | 0.00 | 47 | |
| 20260503202724 | 52 | 307 | 4.3 | 14.8 | 0.00 | 0.00 | 0.00 | 46 | |
| 20260503201725 | 51 | 296 | 4.3 | 12.2 | 0.00 | 0.00 | 0.00 | 49 | |
| 20260503200725 | 52 | 311 | 3.5 | 13.9 | 0.00 | 0.00 | 0.00 | 48 | |
| 20260503200225 | 52 | 312 | 7.0 | 13.0 | 0.00 | 0.00 | 0.00 | 46 | |
| 20260503195225 | 52 | 303 | 5.2 | 13.0 | 0.00 | 0.00 | 0.00 | 48 | |
| 20260503194724 | 52 | 300 | 3.5 | 12.2 | 0.00 | 0.00 | 0.00 | 49 | |
| 20260503194225 | 52 | 311 | 7.8 | 16.5 | 0.00 | 0.00 | 0.00 | 45 | |
| 20260503193225 | 52 | 301 | 7.8 | 14.8 | 0.00 | 0.00 | 0.00 | 45 | |
| 20260503192725 | 51 | 301 | 6.1 | 14.8 | 0.00 | 0.00 | 0.00 | 47 | |
| 20260503192225 | 51 | 321 | 3.5 | 14.8 | 0.00 | 0.00 | 0.00 | 47 | |
| 20260503191725 | 52 | 291 | 7.8 | 14.8 | 0.00 | 0.00 | 0.00 | 45 | |
| 20260503191224 | 52 | 308 | 5.2 | 10.4 | 0.00 | 0.00 | 0.00 | 45 | |
| 20260503190724 | 52 | 334 | 4.3 | 13.9 | 0.00 | 0.00 | 0.00 | 48 | |
| 20260503185725 | 51 | 326 | 5.2 | 12.2 | 0.00 | 0.00 | 0.00 | 48 | |
| 20260503185225 | 51 | 334 | 4.3 | 15.6 | 0.00 | 0.00 | 0.00 | 46 | |
| 20260503184725 | 51 | 320 | 3.5 | 15.6 | 0.00 | 0.00 | 0.00 | 46 | |
| 20260503184225 | 51 | 336 | 7.0 | 15.6 | 0.00 | 0.00 | 0.00 | 46 | |
| 20260503183225 | 51 | 291 | 8.7 | 12.2 | 0.00 | 0.00 | 0.00 | 43 | |
| 20260503182725 | 51 | 313 | 5.2 | 12.2 | 0.00 | 0.00 | 0.00 | 46 | |
| 20260503182225 | 51 | 318 | 4.3 | 13.0 | 0.00 | 0.00 | 0.00 | 45 | |
| 20260503181725 | 51 | 293 | 4.3 | 13.0 | 0.00 | 0.00 | 0.00 | 44 | |
| 20260503175725 | 52 | 274 | 5.2 | 10.4 | 0.00 | 0.00 | 0.00 | 45 | |
| 20260503175225 | 52 | 335 | 4.3 | 15.6 | 0.00 | 0.00 | 0.00 | 46 | |
| 20260503174724 | 50 | 304 | 7.8 | 15.6 | 0.00 | 0.00 | 0.00 | 44 | |
| 20260503174224 | 50 | 294 | 7.8 | 14.8 | 0.00 | 0.00 | 0.00 | 43 | |
| 20260503173725 | 50 | 280 | 3.5 | 10.4 | 0.00 | 0.00 | 0.00 | 43 | |
| 20260503173224 | 50 | 303 | 5.2 | 13.0 | 0.00 | 0.00 | 0.00 | 41 | |
| 20260503172725 | 51 | 301 | 6.1 | 13.0 | 0.00 | 0.00 | 0.00 | 43 | |
| 20260503171725 | 51 | 344 | 6.1 | 13.0 | 0.00 | 0.00 | 0.00 | 45 | |
| 20260503171225 | 50 | 314 | 5.2 | 13.0 | 0.00 | 0.00 | 0.00 | 47 | |
| 20260503170725 | 50 | 340 | 6.1 | 13.0 | 0.00 | 0.00 | 0.00 | 45 | |
| 20260503150726 | 46 | 284 | 8.7 | 14.8 | 0.00 | 0.00 | 0.00 | ||
| 20260503131225 | 41 | 333 | 7.0 | 15.6 | 0.00 | 0.00 | 0.00 | 56 | |
| 20260503130724 | 41 | 338 | 7.8 | 13.9 | 0.00 | 0.00 | 0.00 | 57 | |
| 20260503110725 | 35 | 290 | 2.6 | 5.2 | 0.00 | 0.00 | 0.00 | 82 | |
| 20260503090224 | 0 | 0.0 | 0.0 | 0.00 | 0.00 | 0.00 | |||
| 20260503081223 | 0 | 0.0 | 0.0 | 0.00 | 0.00 | 0.00 | |||
| 20260503080725 | 0 | 0.0 | 0.0 | 0.00 | 0.00 | 0.00 | |||
| 20260503072729 | 0 | 0.0 | 0.0 | 0.00 | 0.00 | 0.00 | |||
| 20260503072724 | 0 | 0.0 | 0.0 | 0.00 | 0.00 | 0.00 | |||
| 20260503072224 | 0 | 0.0 | 0.0 | 0.00 | 0.00 | 0.00 | |||
| 20260503071724 | 0 | 0.0 | 0.0 | 0.00 | 0.00 | 0.00 | |||
| 20260503071224 | 0 | 0.0 | 0.0 | 0.00 | 0.00 | 0.00 | |||
| 20260503070723 | 0 | 0.0 | 0.0 | 0.00 | 0.00 | 0.00 | |||
| 20260503054724 | 36 | 314 | 0.9 | 4.3 | 0.00 | 0.00 | 0.00 | 79 | |
| 20260503054223 | 36 | 0 | 0.0 | 5.2 | 0.00 | 0.00 | 0.00 | 79 | |
| 20260503053724 | 37 | 0 | 0.0 | 5.2 | 0.00 | 0.00 | 0.00 | 79 | |
| 20260503053223 | 37 | 0 | 0.0 | 2.6 | 0.00 | 0.00 | 0.00 | 79 |